Location: Juzet
(42.9779°N, 0.7597°E)
Time: 17:28:18
(UTC+00:00)

Cosmos 1238 Rocket - Pass Details

Date: 14 July 2020
Orbit: 374 x 1030 km, 82.9° (Epoch: 13 August)

Event Time Altitude Azimuth Distance (km) Brightness Sun altitude
Exits shadow 00:50:06 68° 226° (SW) 831 3.4 -24.5°
Maximum altitude 00:50:40 76° 278° (W) 785 3.4 -24.5°
Drops below altitude 10° 00:55:22 10° 4° (N) 2,085 6.8 -24.3°
Sets 00:57:25 0° 6° (N) 2,901 7.9 -24.2°
